Miscellaneous Local Product
Issued by NWS North Platte, NE

Home | Current Version | Previous Version | Text Only | Print | Product List | Glossary On
Versions: 1 2 3 4 5 6 7 8 9 10 11 12 13 14 15 16 17 18 19 20 21 22 23 24 25 26 27 28 29 30 31 32 33 34 35 36 37 38 39 40 41 42 43 44 45 46 47 48 49 50
000
AXUS43 KLBF 221110
MISLBF


WESTERN AND NORTH CENTRAL NEBRASKA HOURLY WEATHER ROUNDUP
NATIONAL WEATHER SERVICE NORTH PLATTE NE
500 AM CST MON DEC 22 2014

***STATIONS NOT REPORTING VARIABLES SUCH AS SKY/WEATHER OR
PRESSURE ARE PROVIDED BY THE NEBRASKA DEPARTMENT OF
ROADS...RAWS...AND APRS NETWORKS...AND ARE NOT UNDER
NATIONAL WEATHER SERVICE QUALITY CONTROL***

...OBSERVATIONS IN AND NEAR THE EASTERN PANHANDLE OF NEBRASKA...

CITY           SKY/WX    TMP DP  RH WIND       PRES   REMARKS
PINE RIDGE     CLOUDY    34  31  88 W6        29.58R WCI  29
CHADRON        CLOUDY    37  29  72 NW28G37   29.62R WCI  25
ALLIANCE       CLOUDY    35  30  82 NW26G37   29.61R WCI  22
SIDNEY         PTCLDY    35  26  69 NW23G35   29.64S WCI  23
WHITECLAY        N/A     35  29  82 W15         N/A  WCI  25
CRESCENT LAKE    N/A     35  28  76 NW16        N/A  WCI  25
LISCO            N/A     37  26  64 W20         N/A  WCI  27
BIG SPRINGS      N/A     36  30  78 NW9         N/A  WCI  29
$$

...OBSERVATIONS IN NORTH CENTRAL NEBRASKA...

CITY           SKY/WX    TMP DP  RH WIND       PRES   REMARKS
VALENTINE      CLOUDY    37  34  89 NW13      29.50S WCI  29
THEDFORD       CLOUDY    38  35  89 NW15G21   29.54R WCI  30
AINSWORTH      DRIZZLE   36  35  96 NW13G21   29.49S WCI  28
O`NEILL        CLOUDY    38  37  97 W9        29.46S WCI  31
BROKEN BOW     CLOUDY    39  34  82 NW10      29.51S WCI  32
BROWNLEE         N/A     38  35  88 NW21        N/A  WCI  28
SPRINGVIEW       N/A     38  35  90 W10G17      N/A  WCI  31
BREWSTER         N/A     38  36  92 NW17        N/A  WCI  29
ROSE             N/A     37  37  99 SW6         N/A  WCI  33
SARGENT          N/A     37  35  91 W3G12       N/A
COMSTOCK         N/A     41  37  87 NW12        N/A
CHAMBERS         N/A     37  36  98 W6G13       N/A  WCI  32
EWING            N/A     38  37  97 CALM        N/A
$$

...OBSERVATIONS IN SOUTHWEST NEBRASKA AND FAR NORTHEAST COLORADO...

CITY           SKY/WX    TMP DP  RH WIND       PRES   REMARKS
WRAY           FAIR      37  30  75 W14G21    29.65R WCI  29
HOLYOKE        FAIR      37  30  75 NW17G23   29.63R WCI  28
IMPERIAL       PTCLDY    38  27  64 NW17      29.60R WCI  28
OGALLALA       PTCLDY    37  30  77 NW20      29.60R WCI  26
NORTH PLATTE   CLOUDY    34  30  85 NW10      29.56R WCI  26
MCCOOK         CLOUDY    39  32  76 NW13      29.57R WCI  31
LEXINGTON      CLOUDY    36  33  88 NW15      29.53R WCI  27
PAXTON           N/A     38  33  83 W3          N/A
BRADY            N/A     35  31  85 CALM        N/A
GOTHENBURG       N/A     36  30  80 W6          N/A  WCI  31
CALLAWAY         N/A     37  35  92 NW12        N/A  WCI  29
$$

...NORTH PLATTE AREA...

CITY           SKY/WX    TMP DP  RH WIND       PRES   REMARKS
AIRPORT        CLOUDY    34  30  85 NW10      29.56R WCI  26
DOWNTOWN         N/A     36  31  83 NE5         N/A  WCI  32
$$

...SOME WEATHER OBSERVATIONS FROM AROUND THE REGION...

CITY           SKY/WX    TMP DP  RH WIND       PRES   REMARKS
DENVER         PTCLDY    33  27  78 NW3       29.72S
LARAMIE        CLOUDY    25  16  68 NW17      29.72R WCI  12
CHEYENNE       PTCLDY    28  19  69 NW12      29.70R WCI  18
SCOTTSBLUFF    CLOUDY    36  28  73 NW14      29.68R WCI  27
RAPID CITY     MOCLDY    41  25  53 NW21G31   29.52R
PIERRE         CLOUDY    36  34  92 W9        29.43S WCI  29
WINNER         CLOUDY    39  36  89 W17       29.46S WCI  30
SIOUX FALLS    LGT RAIN  40  39  97 S10       29.47F FOG     WCI  33
OMAHA          LGT RAIN  43  41  93 S16       29.57F
GRAND ISLAND   CLOUDY    41  38  89 SW12      29.51R
KANSAS CITY    DRIZZLE   41  40  96 SE13      29.62F FOG
WICHITA        DRIZZLE   45  43  93 SE9       29.55F FOG
HAYS           CLOUDY    41  30  65 NW15      29.54R
LIBERAL        PTCLDY    43  36  75 NW17      29.62R
GOODLAND       PTCLDY    36  29  75 NW18      29.63R WCI  26
$$



USA.gov is the U.S. government's official web portal to all federal, state and local government web resources and services.